TimeCDT,TemperatureF,Dew PointF,Humidity,Sea Level PressureIn,VisibilityMPH,Wind Direction,Wind SpeedMPH,Gust SpeedMPH,PrecipitationIn,Events,Conditions,WindDirDegrees,DateUTC
12:53 AM,34.0,26.1,73,30.44,-9999.0,WNW,5.8,-,N/A,,Clear,300,2013-05-03 05:53:00
1:53 AM,33.1,26.1,75,30.42,-9999.0,NW,6.9,-,N/A,,Clear,310,2013-05-03 06:53:00
2:53 AM,34.0,25.0,70,30.38,-9999.0,WNW,5.8,-,N/A,,Clear,300,2013-05-03 07:53:00
3:53 AM,30.0,24.1,79,30.37,-9999.0,NW,8.1,-,N/A,,Clear,310,2013-05-03 08:53:00
4:53 AM,30.9,25.0,79,30.36,-9999.0,NW,10.4,-,N/A,,Clear,320,2013-05-03 09:53:00
5:53 AM,28.0,23.0,81,30.35,-9999.0,NW,4.6,-,N/A,,Clear,320,2013-05-03 10:53:00
6:53 AM,27.0,23.0,85,30.35,-9999.0,NW,5.8,-,N/A,,Clear,310,2013-05-03 11:53:00
7:53 AM,33.1,28.0,82,30.34,-9999.0,NW,3.5,-,N/A,,Clear,310,2013-05-03 12:53:00
8:53 AM,39.9,28.0,63,30.32,-9999.0,North,8.1,-,N/A,,Clear,10,2013-05-03 13:53:00
9:53 AM,46.0,26.1,46,30.30,-9999.0,NNE,10.4,-,N/A,,Clear,20,2013-05-03 14:53:00
10:53 AM,48.9,26.1,41,30.27,-9999.0,NNW,8.1,-,N/A,,Clear,340,2013-05-03 15:53:00
11:53 AM,53.1,27.0,37,30.24,10.0,North,8.1,16.1,N/A,,Clear,10,2013-05-03 16:53:00
12:53 PM,55.9,27.0,33,30.21,10.0,North,16.1,21.9,N/A,,Clear,360,2013-05-03 17:53:00
1:53 PM,55.9,24.1,29,30.17,10.0,North,17.3,26.5,N/A,,Scattered Clouds,350,2013-05-03 18:53:00
2:53 PM,59.0,23.0,25,30.14,10.0,NNW,24.2,29.9,N/A,,Scattered Clouds,340,2013-05-03 19:53:00
3:53 PM,59.0,21.9,24,30.12,10.0,North,18.4,27.6,N/A,,Partly Cloudy,360,2013-05-03 20:53:00
4:53 PM,57.0,21.0,25,30.10,10.0,North,20.7,28.8,N/A,,Partly Cloudy,360,2013-05-03 21:53:00
5:53 PM,59.0,21.9,24,30.09,10.0,North,21.9,29.9,N/A,,Clear,350,2013-05-03 22:53:00
6:53 PM,57.0,21.9,26,30.08,10.0,North,18.4,-,N/A,,Clear,350,2013-05-03 23:53:00
7:53 PM,54.0,23.0,30,30.07,10.0,North,12.7,21.9,N/A,,Clear,10,2013-05-04 00:53:00
8:53 PM,46.0,25.0,44,30.07,10.0,NNE,9.2,-,N/A,,Clear,20,2013-05-04 01:53:00
9:53 PM,42.1,25.0,51,30.08,10.0,NNE,8.1,-,N/A,,Clear,20,2013-05-04 02:53:00
10:53 PM,39.0,24.1,55,30.09,10.0,North,9.2,-,N/A,,Clear,360,2013-05-04 03:53:00
11:53 PM,35.1,23.0,61,30.07,10.0,NNW,9.2,-,N/A,,Clear,340,2013-05-04 04:53:00